Theta_e
344 346 346 346 346 346 347 346 347 346 346 346 347 346 345 346 345 347 345 345 345 345 342 344 338 333 336 337 338 340 337 330 328 327 325 327 328 328 329 329 329 329 329
343 343 343 345 348 348 347 348 348 348 346 346 345 345 345 343 344 347 345 344 345 345 346 345 339 333 335 335 338 338 339 341 337 330 328 327 326 328 332 334 333 333 334
339 342 345 349 349 349 344 346 348 347 347 348 348 346 346 345 345 345 347 346 346 344 346 346 339 337 338 339 339 338 337 337 339 338 339 330 330 328 331 333 335 334 332
341 339 342 344 344 344 347 346 350 351 344 349 348 349 348 347 347 345 346 347 347 345 345 346 346 345 341 340 340 340 338 336 336 336 336 338 338 338 330 331 335 333 333
345 344 348 346 348 345 347 343 344 344 344 348 349 348 350 351 350 349 349 348 348 346 346 347 348 348 347 345 343 342 343 343 339 336 336 335 335 335 337 330 333 335 334
344 350 348 349 347 349 347 348 345 343 348 351 349 347 348 347 350 352 351 350 350 350 349 349 349 348 348 348 347 346 344 345 344 343 340 337 335 334 335 334 331 334 336
347 346 347 345 352 349 351 352 350 346 347 350 350 348 348 349 351 344 350 349 350 350 349 348 350 349 349 350 348 348 350 349 347 345 344 342 338 334 334 335 333 332 334
348 348 346 348 348 347 348 347 349 349 346 347 352 351 351 347 349 349 348 350 350 351 351 350 349 349 349 350 350 350 350 351 350 347 345 345 344 341 335 333 334 334 334
349 351 352 349 350 346 347 349 351 351 349 348 349 351 351 347 347 347 346 349 351 351 350 349 350 350 346 347 350 351 352 351 352 351 348 346 345 345 342 339 335 335 335
350 352 353 350 349 350 350 349 351 351 353 349 348 349 350 350 350 347 347 347 344 349 339 349 348 349 347 349 345 348 352 352 350 354 352 346 345 344 344 342 340 339 338
347 349 351 352 353 348 350 350 348 350 353 352 350 348 347 347 349 350 349 348 346 347 348 346 346 338 339 348 350 350 352 353 353 353 353 349 344 344 344 342 342 341 341
351 352 351 343 349 350 350 351 352 350 349 349 348 348 349 349 348 349 349 348 346 348 348 346 342 342 347 348 346 345 348 348 352 351 353 349 348 345 344 344 344 343 342
350 349 350 351 351 349 351 351 350 350 350 350 349 349 350 349 348 349 349 349 347 347 350 347 346 347 346 346 344 340 340 344 350 348 346 346 345 345 344 343 344 344 344
349 348 350 351 351 350 348 349 349 349 350 351 351 351 350 349 349 350 349 349 350 348 348 349 349 346 346 346 341 339 340 345 350 349 346 343 344 343 344 344 344 343 342
347 345 341 337 342 344 345 344 347 347 348 348 348 349 348 349 348 348 349 350 351 351 349 348 346 346 348 346 343 344 341 341 347 349 348 347 345 344 343 343 346 345 342
320 317 316 316 316 316 319 333 340 341 344 344 344 345 346 347 348 348 349 350 349 349 351 350 349 348 347 345 345 343 342 341 345 348 349 346 342 344 343 343 343 345 343
319 319 321 322 321 320 321 319 324 330 333 335 338 341 343 344 345 346 348 349 349 349 347 348 348 347 346 346 345 345 345 347 349 348 346 346 346 342 341 342 343 344 344
321 324 327 327 328 329 328 329 329 327 328 330 334 336 337 340 344 346 346 346 348 349 348 347 347 346 346 345 345 346 342 343 346 349 350 349 349 347 345 342 343 343 343
329 331 331 332 333 332 333 333 331 330 329 330 331 333 334 337 340 343 343 344 344 345 346 347 348 348 349 347 346 345 344 341 346 346 348 348 348 346 344 345 345 344 344
331 331 332 332 332 330 331 331 332 330 326 324 323 322 322 322 323 338 338 340 342 339 340 345 346 347 347 346 345 345 345 342 346 347 349 349 348 345 344 342 345 347 345
327 329 330 330 329 329 329 327 326 326 325 324 327 329 330 329 326 336 337 338 338 339 342 341 342 343 344 343 343 344 345 344 344 345 346 347 349 346 339 340 342 343 344
331 323 324 328 329 330 329 326 327 327 327 330 331 332 332 331 331 332 334 336 337 340 342 342 341 341 340 340 341 341 342 344 345 346 345 346 346 346 345 342 340 336 338
328 329 329 328 328 328 326 328 328 328 329 330 333 333 332 333 334 330 331 334 333 334 337 339 340 340 339 339 339 339 339 341 342 343 343 343 343 343 344 345 345 344 335
325 328 328 328 328 328 326 325 325 325 327 329 331 332 332 332 333 333 332 332 331 332 331 334 338 339 339 339 336 334 332 331 331 331 336 338 340 340 340 342 342 342 343
324 327 327 326 327 327 327 324 323 323 324 324 330 330 330 331 332 332 332 332 331 330 330 331 333 334 338 337 337 336 336 334 334 335 340 342 341 342 342 341 340 343 346
318 324 325 324 325 327 324 324 322 321 321 322 323 328 329 328 330 330 331 331 331 332 332 333 333 334 334 334 335 336 337 338 338 338 336 337 334 330 330 330 338 343 343
Wind_Speed
8 9 8 7 4 1 3 4 6 7 8 11 12 13 11 7 9 10 9 8 6 8 13 13 16 17 15 18 16 14 15 16 15 14 14 13 12 11 11 11 11 11 10
3 5 7 9 6 3 5 7 9 12 13 12 16 13 18 17 13 12 10 15 14 14 11 12 13 17 17 17 18 17 17 18 18 17 16 16 14 13 12 12 12 12 12
5 5 7 7 7 3 2 2 2 1 3 5 6 7 10 10 14 17 15 17 16 13 13 11 10 12 13 14 15 17 16 17 19 19 19 19 18 16 16 14 13 13 12
4 3 4 3 4 2 3 3 2 3 3 2 4 4 3 7 8 13 15 19 21 13 14 11 11 10 12 12 12 13 15 16 18 19 19 19 20 20 19 17 15 14 14
3 1 3 3 1 4 1 4 5 4 3 2 3 3 5 7 9 12 14 19 17 16 14 12 9 12 11 10 12 13 13 15 17 18 18 19 20 21 22 20 18 16 15
5 3 0 1 1 3 5 7 6 4 3 4 4 5 6 7 11 13 15 17 19 18 17 16 15 15 14 12 12 13 15 15 15 18 19 18 18 20 22 22 21 19 18
5 4 1 3 5 7 5 11 8 4 6 6 9 6 7 8 12 12 14 18 19 18 22 20 16 18 17 16 14 15 17 16 16 17 18 18 18 18 20 22 23 22 20
3 4 4 5 7 6 9 7 10 8 9 8 10 13 11 14 7 7 12 9 10 13 18 18 24 20 21 19 21 20 13 20 18 18 19 18 18 18 18 20 21 22 21
7 5 6 6 8 10 12 8 13 12 9 10 9 7 5 4 11 6 7 9 15 18 19 16 18 21 19 22 23 21 19 18 17 18 19 20 18 18 19 19 20 21 21
5 7 9 8 7 10 12 12 13 13 14 12 11 12 9 11 11 11 8 11 13 18 14 14 18 21 23 20 17 21 20 21 18 19 18 19 19 19 19 19 20 21 22
7 7 8 8 11 12 11 15 13 17 19 20 17 18 20 18 18 18 22 15 14 15 12 13 12 15 22 21 22 27 28 27 17 19 21 19 19 19 18 18 19 20 21
3 4 5 7 7 10 12 14 15 15 17 18 18 17 17 19 18 17 20 20 21 20 14 12 14 21 19 21 23 25 17 20 22 20 20 18 21 22 20 19 19 19 20
8 7 7 8 5 7 8 9 11 12 12 13 16 17 17 19 18 20 21 22 22 22 22 22 15 13 17 16 23 20 24 37 23 20 20 20 21 23 24 22 21 20 21
10 14 12 10 11 11 11 11 10 10 10 12 14 16 19 20 19 20 19 20 22 25 25 23 18 15 13 11 6 12 13 17 22 17 17 18 20 21 25 25 23 22 22
14 14 16 14 14 15 13 14 14 12 12 12 13 15 17 18 18 20 23 24 22 26 27 22 17 17 14 15 20 15 9 10 20 20 16 18 18 19 21 24 24 25 23
13 14 14 13 13 12 13 16 17 16 15 15 14 13 14 16 19 20 20 20 22 22 25 25 19 17 22 19 12 8 14 24 19 18 17 23 24 19 18 20 22 24 24
9 9 10 10 11 11 11 12 13 15 17 16 16 16 16 15 16 16 18 19 23 25 26 29 25 22 19 21 16 13 14 18 20 21 20 21 20 23 21 20 21 22 24
9 8 9 9 9 9 9 9 9 11 13 13 14 15 16 17 15 14 17 18 18 21 24 28 27 26 23 22 22 23 21 21 22 21 22 22 20 19 20 25 22 22 23
6 8 7 8 10 10 10 11 11 12 12 14 16 19 20 20 19 17 17 18 17 18 20 23 26 25 22 19 19 20 23 24 25 22 19 18 19 19 18 22 27 24 22
2 4 5 6 7 8 8 10 13 15 15 15 15 17 19 20 19 19 18 20 17 18 19 19 20 21 21 19 21 22 21 20 23 22 20 19 17 15 12 21 20 24 26
3 4 4 4 5 11 12 13 10 10 12 12 9 9 10 12 14 11 15 19 21 21 20 21 22 22 21 19 18 19 22 24 25 25 25 22 22 22 21 19 19 22 26
5 6 5 6 10 8 12 13 12 11 10 10 11 11 12 12 5 14 16 16 14 18 20 22 23 23 24 21 20 21 20 21 23 18 11 12 17 22 22 22 22 21 31
8 7 8 8 9 10 13 12 12 11 7 6 10 12 14 12 13 14 16 18 18 19 19 18 19 20 22 21 20 22 22 20 21 20 20 22 19 22 20 23 23 28 23
5 3 5 8 10 12 10 12 14 13 11 10 8 8 10 13 14 14 15 16 16 13 14 15 18 18 16 13 12 13 13 15 15 12 9 16 13 15 17 21 23 24 22
3 3 2 5 9 11 12 16 19 17 14 10 4 6 11 14 14 13 14 14 13 10 10 13 15 15 12 13 13 13 10 10 11 9 9 9 8 12 16 17 18 22 23
9 3 5 7 8 11 14 17 20 24 20 14 8 7 11 14 14 13 11 10 10 10 10 8 7 8 9 11 11 12 12 14 12 14 7 11 12 16 18 19 9 10 9
Wind_Direction
171 183 171 170 156 289 275 254 252 262 251 241 242 247 240 229 245 267 251 266 252 285 267 265 247 243 244 231 231 230 228 227 224 227 228 225 221 224 228 224 223 224 225
136 191 168 173 175 178 237 254 260 259 256 255 248 249 241 236 227 250 248 262 277 283 264 268 247 240 246 241 239 245 239 235 230 228 229 230 228 225 228 231 231 234 230
120 132 159 158 139 162 282 238 265 326 248 226 222 212 221 212 222 224 242 253 262 262 261 263 250 240 242 240 241 242 243 238 228 232 230 229 232 232 229 230 231 234 234
83 126 132 143 122 120 20 302 299 320 7 249 237 241 231 223 229 231 229 248 256 253 249 253 250 242 237 243 244 244 241 239 237 234 230 229 232 236 235 233 234 234 237
121 130 89 136 64 220 221 17 8 5 15 345 309 239 245 266 258 245 245 249 253 250 251 256 260 253 247 246 254 251 246 246 242 239 236 234 232 234 234 234 234 236 239
186 182 274 295 326 253 258 322 322 302 358 314 332 319 313 292 260 260 268 257 255 258 257 258 257 253 255 257 262 256 252 249 248 244 239 238 237 232 232 233 234 238 240
228 208 248 279 270 260 261 289 301 270 272 287 292 335 342 314 244 280 248 247 252 247 252 254 254 263 260 259 262 261 265 260 251 247 244 239 236 236 234 233 235 239 243
284 314 274 311 295 289 242 243 281 285 283 262 302 288 313 310 267 307 279 295 249 250 251 252 250 260 270 269 279 270 274 264 263 252 247 245 239 236 236 235 234 237 239
243 246 294 264 287 276 289 279 267 272 286 253 279 260 300 261 295 275 314 295 268 259 258 256 255 257 262 258 255 256 259 258 266 258 253 246 244 242 240 238 238 236 235
220 222 250 266 267 284 277 271 265 268 268 268 270 268 267 281 294 295 295 283 277 248 259 247 265 258 261 248 269 255 250 257 262 256 258 249 244 240 241 240 239 239 239
308 241 266 279 282 285 270 272 259 260 268 274 272 272 275 275 271 277 284 286 277 285 274 265 267 266 262 258 266 250 236 245 270 262 259 253 249 243 237 237 238 240 240
329 22 231 274 321 312 285 275 275 276 267 273 277 280 274 280 276 277 279 281 284 288 286 292 254 263 270 263 274 303 243 233 237 258 257 256 248 245 239 236 237 239 241
270 297 281 278 281 270 276 271 271 272 275 276 278 280 278 276 277 276 269 274 279 283 289 290 286 273 263 279 298 261 255 251 242 251 258 257 255 244 242 238 238 239 242
295 301 295 278 272 271 272 280 278 278 270 275 283 289 290 289 279 275 276 276 280 280 282 287 293 292 286 296 285 254 250 253 240 237 262 267 261 247 241 243 244 245 246
289 288 290 283 273 266 266 273 274 273 272 282 282 293 296 285 280 276 274 276 275 283 286 288 287 293 289 293 303 278 266 237 251 247 257 263 268 258 245 244 249 248 243
294 292 293 291 288 285 273 264 267 272 275 276 284 298 301 298 291 290 277 272 269 276 276 279 284 277 288 289 292 282 234 267 258 258 263 268 267 266 257 246 246 247 243
317 320 322 324 319 314 303 286 276 277 277 279 277 283 285 293 298 298 293 286 274 274 276 282 282 281 280 281 280 281 268 260 259 268 271 273 267 260 260 261 257 246 242
342 342 345 349 353 358 350 327 305 293 286 285 283 278 282 283 288 302 305 299 286 280 277 280 284 285 284 278 277 278 278 270 267 267 271 279 262 263 253 254 255 254 249
9 1 359 5 1 332 344 331 325 320 311 301 292 286 285 284 281 292 301 308 300 295 285 283 282 286 288 293 285 274 268 268 270 271 269 269 265 271 264 265 254 250 253
345 353 1 353 348 326 320 304 310 312 309 309 303 294 289 281 277 278 289 292 300 307 302 294 291 289 286 290 291 292 289 271 276 278 276 268 273 266 262 265 251 257 259
271 298 288 308 318 303 295 313 330 330 332 334 342 349 344 328 283 287 302 298 297 291 295 297 293 290 288 292 291 291 281 283 278 278 277 273 270 260 283 240 262 264 255
357 357 359 341 358 350 334 347 354 353 359 16 10 360 355 353 335 301 292 295 300 301 294 297 295 292 293 292 289 288 288 287 289 288 288 273 264 259 258 255 251 260 273
11 4 1 347 350 345 357 10 4 1 350 354 357 348 347 328 309 305 293 299 302 291 297 304 300 295 293 292 290 285 286 285 283 281 283 281 275 273 272 261 260 266 284
344 352 12 342 327 342 5 6 5 1 352 345 319 329 332 321 318 310 303 296 303 301 290 288 295 302 298 296 297 297 292 295 297 299 290 285 292 287 273 268 264 269 264
343 200 339 311 322 337 343 352 350 350 347 358 303 312 327 315 319 316 318 313 309 306 300 289 290 298 297 284 292 296 300 296 293 301 307 312 314 306 290 295 288 278 275
5 46 28 9 342 332 334 339 343 340 338 338 335 306 320 323 328 332 324 325 327 327 319 326 305 292 296 284 267 269 285 282 296 308 307 298 304 315 312 303 298 296 274